Location: Narrabri
(30.3170°S, 149.7830°E)
Time: 03:48:41
(UTC+11:00)

Vanguard 2 Rocket - All Passes

Search period start: 19 October 2017 00:00
Search period end: 29 October 2017 00:00
Orbit: 555 x 3327 km, 32.9° (Epoch: 17 October)

Date Brightness Start Highest point End Pass type
(mag) Time Alt. Az. Time Alt. Az. Time Alt. Az.
19 Oct - 01:24:13 10° WNW 01:42:38 89° NNE 01:53:22 10° ESE visible
19 Oct - 03:44:53 10° W 03:58:50 78° S 04:06:20 10° E visible
19 Oct - 06:03:57 10° WSW 06:13:06 62° NNW 06:18:24 10° NE daylight
19 Oct - 08:24:08 10° NW 08:24:56 10° NW 08:25:42 10° NW daylight
19 Oct - 19:56:04 10° N 20:06:36 17° NE 20:16:57 10° ENE visible
19 Oct - 22:05:04 10° NNW 22:23:45 46° NNE 22:38:48 10° E visible
20 Oct - 00:21:39 10° WNW 00:41:24 80° NNE 00:53:55 10° ESE visible
20 Oct - 02:42:02 10° W 02:58:22 79° S 03:07:21 10° E visible
20 Oct - 05:02:08 10° WSW 05:13:39 83° NNW 05:19:55 10° ENE visible
20 Oct - 07:20:44 10° W 07:26:16 23° NW 07:30:14 10° NNE daylight
20 Oct - 21:05:07 10° NNW 21:22:10 36° NE 21:37:33 10° E visible
20 Oct - 23:19:37 10° NW 23:39:51 70° NNE 23:54:10 10° ESE visible
21 Oct - 01:39:02 10° W 01:57:27 83° S 02:08:09 10° E visible
21 Oct - 03:59:48 10° WSW 04:13:43 85° S 04:21:11 10° E visible
21 Oct - 06:18:53 10° W 06:27:27 41° NW 06:32:38 10° NE daylight
21 Oct - 20:06:14 10° N 20:20:44 26° NE 20:35:07 10° E visible
21 Oct - 22:18:18 10° NW 22:38:05 59° NNE 22:53:56 10° ESE visible
22 Oct - 00:36:11 10° WNW 00:56:07 89° SSW 01:08:43 10° ESE visible
22 Oct - 02:57:02 10° W 03:13:18 80° S 03:22:13 10° E visible
22 Oct - 05:16:56 10° WSW 05:28:12 63° NNW 05:34:27 10° NE visible
22 Oct - 07:37:25 10° WNW 07:40:09 12° NW 07:42:29 10° NNW daylight
22 Oct - 19:09:03 10° NNE 19:19:34 17° NE 19:30:33 10° E daylight
22 Oct - 21:17:47 10° NNW 21:36:19 48° NE 21:53:04 10° ESE visible
22 Oct - 23:33:49 10° WNW 23:54:26 82° NNE 00:08:57 10° ESE visible
23 Oct - 01:54:00 10° W 02:12:23 80° S 02:23:01 10° E visible
23 Oct - 04:14:38 10° WSW 04:28:28 82° NNW 04:35:55 10° ENE visible
23 Oct - 06:34:13 10° W 06:41:27 26° NW 06:46:17 10° NNE daylight
23 Oct - 20:18:10 10° NNW 20:34:43 38° NE 20:51:24 10° E visible
23 Oct - 22:32:06 10° NW 22:52:29 72° NNE 23:08:48 10° ESE visible
24 Oct - 00:51:01 10° W 01:10:58 83° S 01:23:32 10° E visible
24 Oct - 03:11:56 10° WSW 03:28:11 87° SSE 03:37:04 10° ENE visible
24 Oct - 05:31:52 10° WSW 05:42:28 44° NW 05:48:39 10° NE visible
24 Oct - 19:19:37 10° N 19:33:27 27° NE 19:48:30 10° E visible
24 Oct - 21:31:10 10° NW 21:50:30 61° NNE 22:08:08 10° ESE visible
24 Oct - 23:48:24 10° WNW 00:09:09 89° SSW 00:23:45 10° ESE visible
25 Oct - 02:08:59 10° W 02:27:19 82° S 02:37:53 10° E visible
25 Oct - 04:29:26 10° WSW 04:42:59 64° NNW 04:50:25 10° NE visible
25 Oct - 06:50:34 10° W 06:55:14 15° NW 06:58:51 10° NNW daylight
25 Oct - 18:22:45 10° NNE 18:32:34 17° NE 18:43:29 10° E daylight
25 Oct - 20:31:02 10° NNW 20:48:41 50° NE 21:06:49 10° ESE visible
25 Oct - 22:46:23 10° WNW 23:07:02 84° NNE 23:23:35 10° ESE visible
26 Oct - 01:06:00 10° W 01:25:55 81° S 01:38:24 10° E visible
26 Oct - 03:26:46 10° WSW 03:42:54 81° NNW 03:51:46 10° ENE visible
26 Oct - 05:47:09 10° W 05:56:24 29° NW 06:02:18 10° NNE visible
26 Oct - 19:31:47 10° NNW 19:47:14 38° NE 20:04:41 10° E visible
26 Oct - 21:45:05 10° NW 22:04:50 74° NNE 22:22:59 10° ESE visible
27 Oct - 00:03:15 10° W 00:24:01 83° S 00:38:35 10° E visible
27 Oct - 02:23:53 10° WSW 02:42:12 89° SSE 02:52:43 10° ENE visible
27 Oct - 04:44:20 10° WSW 04:57:10 47° NW 05:04:34 10° NE visible
27 Oct - 18:33:33 10° N 18:46:15 27° NE 19:01:19 10° E daylight
27 Oct - 20:44:33 10° NW 21:02:45 63° NNE 21:21:50 10° ESE visible
27 Oct - 23:01:01 10° WNW 23:21:47 88° SSW 23:38:23 10° ESE visible
28 Oct - 01:20:58 10° W 01:40:52 83° S 01:53:17 10° E visible
28 Oct - 03:41:33 10° WSW 03:57:22 65° NNW 04:06:13 10° NE visible
28 Oct - 06:03:18 10° W 06:10:04 18° NW 06:15:01 10° N daylight
28 Oct - 17:37:03 10° NNE 17:45:43 17° NE 17:55:51 10° E daylight
28 Oct - 19:44:49 10° NNW 20:01:04 51° NE 20:20:03 10° ESE visible
28 Oct - 21:59:26 10° WNW 22:19:22 85° NNE 22:37:45 10° ESE visible
